EW3804 Weather Reports


time (UTC)temp
C
wind
direction
speed
KPH
gust
KPH
rain 1hr
cm
rain 24hr
cm
rain mn
cm
humidity
%
barometer
mb
20260506191504 14 335 0.0 8.0 0.00 0.00 0.00 85 1006.0
20260506190004 15 4 0.0 6.4 0.00 0.00 0.00 85 1006.0
20260506184504 15 341 1.6 9.7 0.00 0.00 0.00 85 1006.3
20260506183005 15 311 0.0 4.8 0.00 0.00 0.00 83 1005.8
20260506181503 15 341 0.0 8.0 0.00 0.00 0.00 84 1006.1
20260506180004 15 330 0.0 3.2 0.00 0.00 0.00 83 1006.1
20260506174601 15 25 0.0 4.8 0.00 0.00 0.00 82 1006.1
20260506173112 15 323 0.0 6.4 0.00 0.00 0.00 82 1005.9
20260506171610 15 18 0.0 3.2 0.00 0.00 0.00 82 1005.0
20260506170105 16 28 0.0 0.0 0.00 0.00 0.00 83 1003.5
20260506164614 15 39 0.0 0.0 0.00 0.00 0.00 88 1004.3
20260506163103 14 77 0.0 0.0 0.00 0.00 0.00 90 1004.7
20260506161557 13 40 0.0 0.0 0.00 0.00 0.00 89 1005.9
20260506160107 13 51 0.0 0.0 0.00 0.00 0.00 88 1006.0
20260506154555 13 10 0.0 0.0 0.00 0.00 0.00 88 1006.6
20260506153055 13 335 0.0 0.0 0.00 0.00 0.00 90 1006.4
20260506151553 13 15 0.0 0.0 0.00 0.00 0.00 90 1006.7
20260506150050 13 349 0.0 0.0 0.00 0.00 0.00 90 1006.2
20260506144546 14 320 0.0 0.0 0.00 0.00 0.00 88 1006.0
20260506143043 14 323 0.0 0.0 0.00 0.00 0.00 88 1005.6
20260506141556 15 329 0.0 0.0 0.00 0.00 0.00 89 1005.8
20260506140039 15 1 0.0 0.0 0.00 0.00 0.00 90 1004.8
20260506134533 15 15 0.0 0.0 0.00 0.00 0.00 91 1004.3
20260506133033 15 96 0.0 0.0 0.00 0.00 0.00 91 1004.2
20260506131536 15 308 0.0 0.0 0.00 0.00 0.00 92 1004.1
20260506130028 -17 0.0 0.0 0.00 0.00 0.00 1003.8
20260506124524 -17 0.0 0.0 0.00 0.00 0.00 1003.6
20260506123021 -17 0.0 0.0 0.00 0.00 0.00 1003.3
20260506121516 -17 0.0 0.0 0.00 0.00 0.00 1003.1
20260506120008 -17 0.0 0.0 0.00 0.00 0.00 1002.8
20260506114504 -17 0.0 0.0 0.00 0.00 0.00 1002.5
20260506113002 -17 0.0 0.0 0.00 0.00 0.00 1002.5
20260506111558 -17 0.0 0.0 0.00 0.00 0.00 1002.4
20260506110054 -17 0.0 0.0 0.00 0.00 0.00 1002.1
20260506104548 -17 0.0 0.0 0.00 0.00 0.00 1001.9
20260506103043 -17 0.0 0.0 0.00 0.00 0.00 1001.6
20260506101539 -17 0.0 0.0 0.00 0.00 0.00 1001.2
20260506100035 -17 0.0 0.0 0.00 0.00 0.00 1001.1
20260506094536 21 313 0.0 0.0 0.00 0.00 0.00 84 1000.7
20260506093041 21 312 0.0 9.7 0.00 0.00 0.00 83 1000.7
20260506091525 23 198 0.0 8.0 0.00 0.00 0.00 93 1000.6
20260506090025 23 169 0.0 6.4 0.00 0.00 0.00 92 1000.4
20260506084523 23 150 0.0 0.0 0.00 0.00 0.00 92 1000.5
20260506083023 23 143 0.0 9.7 0.00 0.00 0.00 92 1000.3
20260506081522 23 114 0.0 6.4 0.00 0.00 0.00 92 1000.3
20260506073020 23 147 0.0 0.0 0.00 0.00 0.00 91 1000.6
20260506071519 23 174 0.0 0.0 0.00 0.00 0.00 91 1000.7
20260506061516 23 178 0.0 3.2 0.00 0.00 0.00 92 1000.5
20260506044503 23 157 0.0 0.0 0.00 0.00 0.00 91 999.8
20260506043006 23 153 0.0 0.0 0.00 0.00 0.00 90 999.9
20260506041502 24 150 0.0 4.8 0.00 0.00 0.00 89 999.9
20260506040003 24 147 4.8 12.9 0.00 0.00 0.00 89 999.8
20260506034600 24 83 0.0 9.7 0.00 0.00 0.00 88 999.4
20260506033110 24 160 0.0 6.4 0.00 0.00 0.00 88 999.3
20260506031603 24 170 0.0 6.4 0.00 0.00 0.00 87 999.2
20260506030113 24 150 0.0 3.2 0.00 0.00 0.00 87 998.6
20260506024558 25 134 0.0 0.0 0.00 0.00 0.00 86 998.4
20260506023057 25 149 0.0 0.0 0.00 0.00 0.00 85 998.2
20260506021603 25 117 0.0 0.0 0.00 0.00 0.00 85 997.9
20260506020056 25 143 0.0 0.0 0.00 0.00 0.00 84 997.9
20260506014601 25 135 0.0 0.0 0.00 0.00 0.00 83 997.7
20260506013055 25 164 0.0 6.4 0.00 0.00 0.00 82 997.5
20260506011558 26 130 0.0 3.2 0.00 0.00 0.00 81 997.5
20260506010058 26 158 0.0 6.4 0.00 0.00 0.00 80 997.4
20260506004624 26 141 0.0 6.4 0.00 0.00 0.00 78 997.3
20260506003052 27 161 0.0 8.0 0.00 0.00 0.00 76 997.2
20260506001552 28 172 0.0 0.0 0.00 0.00 0.00 74 997.4
20260506000051 28 122 0.0 6.4 0.00 0.00 0.00 74 997.5
20260505234611 28 175 0.0 3.2 0.00 0.00 0.00 73 997.3
20260505233049 28 159 0.0 6.4 0.00 0.00 0.00 72 997.2
20260505231550 28 213 0.0 11.3 0.00 0.00 0.00 73 997.2
20260505230051 28 101 0.0 11.3 0.00 0.00 0.00 71 997.1
20260505224550 28 159 0.0 0.0 0.00 0.00 0.00 71 997.2
20260505223059 28 155 0.0 6.4 0.00 0.00 0.00 71 997.2
20260505221558 28 98 0.0 0.0 0.00 0.00 0.00 71 997.0
20260505220057 28 155 0.0 6.4 0.00 0.00 0.00 72 997.0
20260505214556 29 139 0.0 4.8 0.00 0.00 0.00 70 997.1
20260505213045 29 140 0.0 14.5 0.00 0.00 0.00 69 997.4
20260505211540 29 167 0.0 6.4 0.00 0.00 0.00 70 997.5
20260505210038 29 186 0.0 12.9 0.00 0.00 0.00 69 997.7
20260505204535 29 205 3.2 14.5 0.00 0.00 0.00 69 998.0
20260505203036 29 216 1.6 16.1 0.00 0.00 0.00 68 998.1
20260505201533 29 178 0.0 4.8 0.00 0.00 0.00 69 998.0
20260505200036 29 150 0.0 14.5 0.00 0.00 0.00 69 998.2
20260505194530 29 191 0.0 9.7 0.00 0.00 0.00 69 998.4
20260505193027 28 151 0.0 9.7 0.00 0.00 0.00 70 998.5